This demonstration page uses our WeatherBlox Daily Observations layout. Learn more.

Hourly Observations for June 18, 2017

Temp ( °F °C ) Dew Point ( °F °C ) Humidity (%) Winds ( mph kmh ) Pressure ( in mb ) Visibility ( mi km ) Precip ( " mm )
12:15 am 00:15 Partly Cloudy 77 25 73 23 89 89 S 8 13 29.88 1012 10 16.09344 0 0
12:35 am 00:35 Partly Cloudy 77 25 73 23 89 89 S 7 11 29.88 1012 10 16.09344 0 0
12:55 am 00:55 Mostly Cloudy 77 25 73 23 89 89 S 7 11 29.88 1012 10 16.09344 0 0
1:15 am 01:15 Cloudy 77 25 73 23 89 89 S 8 13 29.88 1012 10 16.09344 0 0
1:35 am 01:35 Cloudy 77 25 73 23 89 89 S 8 13 29.88 1012 10 16.09344 0 0
1:55 am 01:55 Cloudy 77 25 73 23 89 89 S 8 13 29.88 1012 10 16.09344 0 0
2:15 am 02:15 Cloudy 77 25 73 23 89 89 S 6 9 29.88 1012 10 16.09344 0 0
2:35 am 02:35 Cloudy 77 25 73 23 89 89 S 12 19 29.85 1011 10 16.09344 0 0
2:55 am 02:55 Cloudy 75 24 73 23 94 94 S 7 11 29.85 1011 10 16.09344 0 0
3:15 am 03:15 Cloudy 75 24 73 23 94 94 S 10 17 29.85 1011 10 16.09344 0 0
3:35 am 03:35 Cloudy 75 24 73 23 94 94 S 9 15 29.85 1011 10 16.09344 0 0
3:55 am 03:55 Cloudy 75 24 73 23 94 94 S 6 9 29.85 1011 10 16.09344 0 0
4:15 am 04:15 Cloudy 75 24 73 23 94 94 S 7 11 29.85 1011 10 16.09344 0 0
4:35 am 04:35 Cloudy 75 24 73 23 94 94 S 7 11 29.85 1011 10 16.09344 0 0
4:55 am 04:55 Cloudy 75 24 73 23 94 94 SSW 6 9 29.88 1012 10 16.09344 0 0
5:15 am 05:15 Cloudy 75 24 73 23 94 94 SSW 6 9 29.88 1012 10 16.09344 0 0
5:35 am 05:35 Cloudy 75 24 73 23 94 94 SSW 7 11 29.88 1012 10 16.09344 0 0
5:55 am 05:55 Cloudy 75 24 73 23 94 94 S 6 9 29.88 1012 10 16.09344 0 0
6:15 am 06:15 Cloudy 75 24 73 23 94 94 SSW 6 9 29.88 1012 10 16.09344 0 0
6:35 am 06:35 Cloudy 75 24 73 23 94 94 SW 3 6 29.88 1012 10 16.09344 0 0
6:55 am 06:55 Cloudy 75 24 73 23 94 94 SSW 5 7 29.88 1012 10 16.09344 0 0
7:15 am 07:15 Cloudy 77 25 75 24 94 94 SSW 7 11 29.88 1012 10 16.09344 0 0
7:35 am 07:35 Cloudy 77 25 75 24 94 94 S 8 13 29.88 1012 10 16.09344 0 0
7:55 am 07:55 Cloudy 77 25 75 24 94 94 S 7 11 29.88 1012 10 16.09344 0 0
8:15 am 08:15 Cloudy 79 26 75 24 89 89 S 9 15 29.88 1012 10 16.09344 0 0
8:35 am 08:35 Cloudy 79 26 75 24 89 89 S 12 19 29.88 1012 10 16.09344 0 0
8:55 am 08:55 Cloudy 81 27 73 23 79 79 SSW 12 19 29.88 1012 10 16.09344 0 0
9:15 am 09:15 Cloudy 81 27 73 23 79 79 SSW 9 15 29.88 1012 10 16.09344 0 0
9:35 am 09:35 Cloudy 81 27 73 23 79 79 S 8 13 29.88 1012 10 16.09344 0 0
9:55 am 09:55 Cloudy 81 27 75 24 84 84 SSW 6 9 29.88 1012 10 16.09344 0 0
10:15 am 10:15 Mostly Cloudy 82 28 75 24 79 79 SSW 6 9 29.88 1012 10 16.09344 0 0
10:35 am 10:35 Mostly Cloudy 82 28 75 24 79 79 S 10 17 29.88 1012 10 16.09344 0 0
10:55 am 10:55 Mostly Cloudy 86 30 75 24 70 70 S 10 17 29.85 1011 10 16.09344 0 0
11:15 am 11:15 Mostly Cloudy 86 30 75 24 70 70 S 8 13 29.85 1011 10 16.09344 0 0
11:35 am 11:35 Mostly Cloudy 86 30 75 24 70 70 SW 6 9 29.83 1010 10 16.09344 0 0
11:55 am 11:55 Mostly Cloudy 88 31 77 25 70 70 S 9 15 29.83 1010 10 16.09344 0 0
12:15 pm 12:15 Partly Cloudy 88 31 75 24 66 66 S 9 15 29.83 1010 10 16.09344 0 0
12:35 pm 12:35 Partly Cloudy 90 32 75 24 63 63 S 12 19 29.83 1010 10 16.09344 0 0
12:55 pm 12:55 Partly Cloudy 90 32 75 24 63 63 S 10 17 29.8 1009 10 16.09344 0 0
1:15 pm 13:15 Partly Cloudy 90 32 73 23 59 59 S 10 17 29.8 1009 10 16.09344 0 0
1:35 pm 13:35 Sunny 91 33 75 24 59 59 S 14 22 29.8 1009 10 16.09344 0 0
1:55 pm 13:55 Mostly Cloudy 90 32 73 23 59 59 S 9 15 29.8 1009 10 16.09344 0 0
2:15 pm 14:15 Mostly Cloudy 91 33 75 24 59 59 SSW 14 22 29.8 1009 N/A 0 0
2:35 pm 14:35 Partly Cloudy 91 33 73 23 56 56 SW 12 19 29.77 1008 N/A 0 0
2:55 pm 14:55 Partly Cloudy 91 33 73 23 56 56 SSW 14 22 29.77 1008 N/A 0 0
3:15 pm 15:15 Partly Cloudy 93 34 73 23 53 53 SSW 15 24 29.77 1008 N/A 0 0
3:35 pm 15:35 Mostly Cloudy 91 33 73 23 56 56 S 17 28 29.77 1008 N/A 0 0
3:55 pm 15:55 Mostly Cloudy 95 35 73 23 50 50 S 20 31 29.77 1008 N/A 0 0
4:15 pm 16:15 Mostly Cloudy 91 33 73 23 56 56 SSW 14 22 29.77 1008 N/A 0 0
4:35 pm 16:35 Mostly Cloudy 91 33 73 23 56 56 SW 13 20 29.77 1008 N/A 0 0
4:55 pm 16:55 Cloudy 90 32 73 23 59 59 SSW 17 28 29.77 1008 N/A 0 0
5:15 pm 17:15 Partly Cloudy 90 32 73 23 59 59 SSW 21 33 29.74 1007 N/A 0 0
5:35 pm 17:35 Sunny 91 33 73 23 56 56 SW 16 26 29.74 1007 N/A 0 0
5:55 pm 17:55 Partly Cloudy 91 33 73 23 56 56 SSW 12 19 29.74 1007 N/A 0 0
6:15 pm 18:15 Partly Cloudy 90 32 73 23 59 59 SW 14 22 29.77 1008 N/A 0 0
6:35 pm 18:35 Partly Cloudy 90 32 73 23 59 59 SSW 15 24 29.77 1008 N/A 0 0
6:55 pm 18:55 Sunny 90 32 73 23 59 59 SSW 17 28 29.77 1008 N/A 0 0
7:15 pm 19:15 Sunny 90 32 73 23 59 59 SSW 10 17 29.74 1007 N/A 0 0
7:35 pm 19:35 Sunny 88 31 73 23 62 62 SSW 15 24 29.77 1008 N/A 0 0
7:55 pm 19:55 Sunny 88 31 73 23 62 62 SSW 9 15 29.77 1008 10 16.09344 0 0
8:15 pm 20:15 Sunny 86 30 73 23 66 66 SSW 14 22 29.77 1008 10 16.09344 0 0
8:35 pm 20:35 Sunny 86 30 73 23 66 66 S 16 26 29.77 1008 10 16.09344 0 0
8:55 pm 20:55 Clear 84 29 73 23 70 70 SSW 14 22 29.77 1008 10 16.09344 0 0
9:15 pm 21:15 Clear 84 29 73 23 70 70 SSW 14 22 29.8 1009 10 16.09344 0 0
9:35 pm 21:35 Clear 84 29 75 24 74 74 SSW 9 15 29.8 1009 10 16.09344 0 0
9:55 pm 21:55 Clear 82 28 75 24 79 79 SSW 13 20 29.83 1010 10 16.09344 0 0
10:15 pm 22:15 Clear 82 28 75 24 79 79 SSW 10 17 29.83 1010 10 16.09344 0 0
10:35 pm 22:35 Clear 82 28 75 24 79 79 SSW 13 20 29.83 1010 10 16.09344 0 0
10:55 pm 22:55 Partly Cloudy 82 28 75 24 79 79 SSW 9 15 29.83 1010 10 16.09344 0 0
11:15 pm 23:15 Partly Cloudy 82 28 75 24 79 79 SSW 13 20 29.83 1010 10 16.09344 0 0

Powered by AerisWeather